Starlink 1973

operational
NORAD ID: 47628 Int'l Des: 2021-012 Owner: SPXS Country: US Constellation: starlink
LEOCIRCULARSTARLINK_TYPE

About Starlink 1973

Description loading...

Live Position

Loading 3D Globe...

Upcoming Passes

Altitude History

Altitude vs Time

uPlot chart will show altitude changes over time

Two-Line Element Set

1 47628U 21012J 26022.50002314 .00094757 00000-0 50336-2 0 9991
2 47628 53.0859 278.8161 0001692 82.3438 7.6239 15.14518658 5576
Epoch: Jan 22, 2026 • Age: 17 hours

Current Status

Altitude 541.5 km
Velocity 7.59 km/s
Sub-Earth Point -52.76°S, 3.88°E
Launch Date Feb 16, 2021
Age 4.9 years
Type internet

Technical Details

Classification Payload
Mass 260.00 kg
Dry Mass 248.00 kg
Total Mass 260.00 kg
Length 0.20 m
Diameter 2.80 m
Span 9.00 m
Shape Box + pan
Manufacturer SPXS
Bus Type Starlink
Phase Status In Orbit
Owner/State SPXS/US

Large Constellations

Loading constellations...